ANTARES R/B (47690 NORAD) Tracking and Keplerian Element Data

This shows tracking and keplerian element data for the satellite.

Feedback or suggestion? Click here.




ElementValue
Catalog47690
NameANTARES R/B
Epoch Orbit138
Epoch Day60.31897094
Epoch Year2021
RAAN151.889
Inclination51.6198
Eccentricity0.0015286
Argument of Perigee182.8833
Mean Anonmoly286.296
Mean Motion16.46916191
Decay Rate0.18101689
L11 47690U 21013B 21060.31897094 .18101689 12336-4 29026-3 0 9998
L22 47690 51.6198 151.8890 0015286 182.8833 286.2960 16.46916191 1384

Live tracking and technical data element details for ANTARES R/B (NORAD 47690). ANTARES R/B can be tracked NOW for your location showing map with azimuth and elevation plus other details from your city location.

Track the satellite on the map from your city or location and see movement details for azimuth, elevation, latitude, longitude, range, height, and movement on the map or in text.







IsCatalogInMostPopularTable: catalog: 47690, numindb: 23
Update: records affected: 1



GetName: 47690 ANTARES R/B

Hit Count: updated at: Fri, 16 Apr 2021 11:34:32 GMT